Regional Weather Roundup
Issued by NWS

Home | Current Version | Previous Version | Text Only | Print | Product List | Glossary Off
Versions: 1 2 3 4 5 6 7 8 9 10 11 12 13 14 15 16 17 18 19 20 21 22 23 24 25 26 27

000
ASUS45 KBOU 201107
RWRCO

WEATHER ROUNDUP FOR COLORADO
NATIONAL WEATHER SERVICE DENVER/BOULDER CO
500 AM MDT SUN AUG 20 2017

NOTE: "FAIR" INDICATES FEW OR NO CLOUDS BELOW 12000 FEET WITH NO
SIGNIFICANT WEATHER AND/OR OBSTRUCTIONS TO VISIBILITY.

COZ001>005-013-030-031-201200-
...NORTHWEST COLORADO...

CITY           SKY/WX    TMP DP  RH WIND       PRES   REMARKS
CRAIG          FAIR      45  35  68 CALM      30.19S
HAYDEN         FAIR      54  36  50 E9        30.22R
MEEKER         FAIR      49  37  63 CALM      30.21S
RABBIT EARS PA FAIR      54  32  43 W5        30.48F
STEAMBOAT SPGS FAIR      49  36  60 CALM      30.24R
WALDEN         FAIR      41  32  70 SE8       30.33S
$$

COZ006>008-011-201200-
...WEST CENTRAL VALLEYS...

CITY           SKY/WX    TMP DP  RH WIND       PRES   REMARKS
GRAND JUNCTION FAIR      66  38  35 E7        30.06F
MONTROSE       FAIR      57  40  52 S8        30.16F
EAGLE          FAIR      48  33  56 E5        30.27S
RIFLE          FAIR      54  37  52 CALM      30.16S
DELTA          FAIR      61  38  42 NE10      30.13S
NUCLA          FAIR      59  32  36 E9        30.19S
$$

COZ017>023-064>068-201200-
...SOUTHWEST COLORADO...

CITY           SKY/WX    TMP DP  RH WIND       PRES   REMARKS
DURANGO        FAIR      56  39  53 N7        30.22S
CORTEZ         FAIR      59  42  53 CALM      30.14S
PAGOSA SPRINGS FAIR      51  36  55 CALM      30.31F
TELLURIDE      FAIR      51  32  48 SE8       30.40S
WOLF CREEK PAS FAIR      45  37  76 SW9       30.65S
$$

COZ009-010-012-014-032>034-037-058>063-201200-
...CENTRAL COLORADO...

CITY           SKY/WX    TMP DP  RH WIND       PRES   REMARKS
ASPEN          FAIR      47  35  63 S6        30.30S
BUENA VISTA    FAIR      50  33  51 NW6       30.33R
COPPER MTN     FAIR      54  25  32 NW3       30.60F
BERTHOUD PASS  FAIR      43  37  81 NW12      30.63S
COTTONWOOD PAS FAIR      61  23  23 SW6       30.45R
GUNNISON       FAIR      42  34  73 CALM      30.34S
KREMMLING      FAIR      45  34  65 CALM      30.32S
LEADVILLE      FAIR      37  29  72 N5        30.45S
SALIDA         FAIR      55  35  46 NW5       30.37S
SUNLIGHT       FAIR      54  27  35 W3        30.53F
WILKERSON PASS FAIR      52  27  37 NW3       30.57S
$$

COZ069>075-201200-
...SAN LUIS VALLEY/SANGRE DE CRISTO MOUNTAINS...

CITY           SKY/WX    TMP DP  RH WIND       PRES   REMARKS
ALAMOSA        FAIR      48  42  80 E6        30.29R
DEL NORTE      FAIR      53  34  48 W8        30.32R
LA VETA PASS   NOT AVBL
SAGUACHE       FAIR      50  34  53 N7        30.33R
$$

COZ035-036-038>040-201200-
...NORTHERN COLORADO FRONT RANGE...

CITY           SKY/WX    TMP DP  RH WIND       PRES   REMARKS
DENVER INTL AP FAIR      66  40  38 SW14      30.06S
DMNS CITY PARK   N/A     64  40  41 SE7       30.07S
AURORA         PTCLDY    61  42  48 S8        30.09F
FRONT RANGE AP FAIR      66  41  39 SW12G17   30.08S
ERIE MUNI ARPT FAIR      58  42  54 S6        30.10S
BOULDER MUN AP FAIR      64  37  36 CALM      30.06S
CENTENNIAL     FAIR      58  42  55 CALM      30.11S
BROOMFIELD     NOT AVBL
FORT COLLINS   FAIR      62  44  51 E9        30.05S
LONGMONT       FAIR      59  46  60 W5        30.07R
$$

COZ041-046-047-076>085-087-088-201200-
...PIKES PEAK/PALMER DIVIDE AND SOUTHERN FOOTHILLS...

CITY           SKY/WX    TMP DP  RH WIND       PRES   REMARKS
COLO. SPRINGS  FAIR      63  44  50 N5        30.13S
A. F. ACADEMY  FAIR      54  43  66 N6        30.15F
SCHRIEVER AFB  FAIR      66  39  37 NW8       30.13S
CHEYENNE MTN   FAIR      69  36  29 NW7       30.14R
ELLICOTT       NOT AVBL
FALCON         FAIR      62  40  44 W12       30.19S
FORT CARSON    FAIR      64  42  44 NW15      30.09S
LIMON          FAIR      51  49  92 N7        30.07S
MONUMENT HILL  FAIR      55  41  58 SW7       30.21S
CANON CITY     CLEAR     70  43  37 W16       30.07S
WALSENBURG     FAIR      72  39  30 W12G18    30.12S
TRINIDAD       FAIR      60  47  61 W10       30.10S
$$

COZ042>045-048>051-090-091-201200-
...NORTHEAST COLORADO...

CITY           SKY/WX    TMP DP  RH WIND       PRES   REMARKS
GREELEY ARPT   FAIR      55  48  77 NW5       30.03S
AKRON          FAIR      64  44  48 W8        29.99S
BURLINGTON     FAIR      66  53  63 SW9       29.98R
WRAY           NOT AVBL
YUMA           FAIR      59  37  44 W9        29.95S
STERLING       FAIR      55  50  82 S3        29.95S
HOLYOKE        NOT AVBL
FORT MORGAN    FAIR      56  46  67 W9        30.00S
$$

COZ086-089-092>099-201200-
...SOUTHEAST COLORADO...

CITY           SKY/WX    TMP DP  RH WIND       PRES   REMARKS
PUEBLO         FAIR      60  48  64 CALM      30.02R
LA JUNTA       FAIR      61  51  70 VRB3      29.99R
LAMAR          FAIR      57  53  86 CALM      29.94F
SPRINGFIELD      N/A     62  55  77 SW10      30.00F
$$




USA.gov is the U.S. government's official web portal to all federal, state and local government web resources and services.